Wind_Speed
9 9 9 9 9 9 9 9 9 10 10 10 11 11 13 14 15 16 17 17 17 18 18 18 20 21 21 22 23 24 24 26 26 26 26 27 28 28
11 10 10 10 10 11 11 11 11 11 11 11 12 13 14 15 16 17 18 19 19 18 19 19 20 22 22 23 25 25 25 27 28 28 28 29 29 30
13 13 13 13 13 13 13 13 13 13 13 13 14 14 15 16 17 18 19 19 20 20 21 21 22 22 23 24 26 26 27 28 29 30 30 30 30 30
15 15 15 15 15 15 15 15 15 16 16 16 16 17 17 18 18 19 20 21 21 22 22 23 24 24 23 24 25 26 27 27 29 30 31 31 32 32
17 17 17 17 17 17 17 17 17 18 19 19 19 19 20 20 21 21 22 23 24 24 25 25 26 26 25 25 26 27 27 28 29 30 31 33 33 33
18 18 19 19 19 19 19 19 20 21 21 21 21 22 22 23 23 23 24 25 25 26 27 28 28 29 29 28 28 29 30 30 31 32 33 34 34 35
20 20 20 21 21 21 22 22 23 23 23 24 24 24 24 25 25 25 26 26 27 28 28 29 30 31 32 32 32 32 33 33 34 35 35 36 36 37
21 22 22 23 23 24 24 24 25 25 25 26 26 27 27 27 27 28 28 29 29 29 30 31 31 32 34 35 35 36 36 37 37 38 38 38 38 39
23 24 24 25 26 26 27 27 27 28 28 29 29 29 29 29 30 30 31 31 32 32 33 33 34 35 36 37 38 38 39 40 40 41 41 42 42 42
26 26 27 27 28 28 29 30 30 30 30 30 31 31 32 32 32 33 33 34 35 36 36 36 37 38 39 40 41 41 41 42 43 44 44 44 45 45
28 29 29 30 30 31 32 32 32 33 33 33 33 33 34 34 35 35 36 37 37 38 40 40 40 41 41 42 43 44 45 45 46 46 47 47 47 47
30 31 32 33 33 33 34 34 34 35 35 36 36 37 37 38 39 39 40 40 41 42 43 44 45 45 45 45 47 48 48 49 49 49 50 50 50 50
33 34 34 35 35 36 36 36 36 37 37 38 39 40 40 41 42 43 43 44 45 45 46 48 48 49 50 49 49 50 51 51 51 51 52 52 52 52
36 36 37 37 38 38 39 39 40 40 41 41 42 42 43 44 44 45 46 46 47 48 49 49 50 51 52 52 51 51 52 53 53 53 53 54 54 54
38 39 40 40 41 41 42 42 43 43 43 43 44 45 46 47 47 48 49 49 49 50 51 52 53 53 54 54 54 54 54 54 55 55 55 55 55 55
41 42 42 43 44 44 45 45 45 45 45 46 47 48 49 50 51 51 51 51 52 52 53 54 55 55 54 55 56 56 56 55 55 56 57 56 56 57
43 44 45 45 46 46 46 46 47 47 48 49 49 50 51 52 53 54 54 55 55 54 54 55 56 57 56 55 55 55 55 55 55 55 55 55 55 56
45 45 46 46 47 47 48 48 49 49 50 51 51 52 53 54 54 55 56 56 56 56 55 55 56 56 56 54 55 55 54 54 53 54 55 55 54 54
47 47 48 48 49 49 50 50 50 51 52 53 54 55 56 56 56 56 56 56 56 55 55 55 55 55 55 53 51 53 54 54 53 53 53 54 53 53
49 49 49 50 50 51 52 52 52 53 53 54 55 56 57 57 57 57 56 55 55 54 53 53 53 54 54 53 50 50 52 53 53 52 52 52 52 52
50 50 50 51 51 52 52 53 54 54 55 55 56 56 57 57 56 56 55 55 54 53 52 51 51 52 53 52 51 49 49 51 52 51 50 50 50 50
50 51 52 52 52 52 52 53 54 54 55 55 55 55 55 55 54 54 54 53 52 51 50 49 49 50 51 51 50 49 48 48 49 50 50 49 49 49
51 52 52 52 52 52 52 52 53 53 54 54 54 53 53 52 51 50 50 49 49 49 48 47 46 46 47 47 47 47 46 46 46 47 47 46 46 46
Wind_Direction
326 325 323 320 315 312 310 307 305 302 298 292 282 274 270 266 263 262 262 262 260 259 259 258 256 255 255 255 254 253 251 249 248 247 247 247 248 249
320 318 316 313 310 306 304 303 301 300 298 294 286 279 275 272 266 264 263 263 261 261 261 260 259 258 258 259 259 258 255 251 249 249 250 250 251 252
319 317 314 310 306 302 300 299 299 298 295 292 288 283 280 275 271 270 267 266 265 264 263 263 262 262 261 261 261 260 258 255 252 252 252 252 252 253
315 313 311 309 305 301 298 296 294 294 292 289 288 285 283 280 278 274 271 269 268 267 265 264 263 263 264 263 263 262 260 257 254 254 254 254 254 255
312 309 307 305 302 300 298 295 292 291 291 289 287 285 283 282 280 277 273 270 269 268 267 266 266 265 263 264 263 262 260 257 256 256 256 256 257 258
311 308 305 303 301 298 296 294 293 291 290 289 287 285 283 282 280 278 275 273 271 270 269 268 268 267 264 264 263 263 262 261 260 259 259 259 259 258
307 306 303 301 300 298 296 294 292 291 290 288 287 286 284 282 279 278 276 275 274 272 271 270 270 270 268 267 264 264 264 262 262 261 261 261 260 260
304 303 302 301 300 299 297 295 294 292 291 289 288 285 283 281 280 278 277 276 275 274 274 273 273 272 272 271 269 266 265 265 265 264 264 263 262 261
302 302 302 301 300 299 297 296 294 293 291 289 287 285 283 281 280 279 277 276 275 274 274 274 274 274 274 273 273 271 269 267 267 266 265 264 264 263
302 301 301 300 299 298 298 296 294 292 291 289 288 286 284 283 282 281 279 277 276 276 275 274 274 274 274 274 273 272 272 271 269 267 266 265 264 263
302 302 301 300 299 298 297 296 294 292 291 291 289 288 286 285 284 283 282 281 279 279 278 277 275 275 274 274 274 274 273 272 270 268 267 266 265 263
300 301 301 300 299 298 297 295 294 293 291 290 289 288 287 286 285 285 284 284 283 281 280 279 277 276 274 274 274 274 273 272 271 269 267 265 264 263
300 300 300 299 299 298 297 295 293 292 291 290 289 288 288 288 287 286 286 286 285 283 282 280 279 277 276 275 274 273 273 272 271 269 268 266 264 263
300 300 299 298 298 297 296 294 293 292 291 290 289 289 288 289 289 288 287 286 287 286 285 283 282 280 278 276 275 274 273 272 271 269 268 266 265 263
299 298 298 297 297 297 296 294 293 292 291 291 290 290 289 289 289 288 287 286 287 287 286 285 284 282 281 279 277 275 274 272 271 269 267 266 264 263
298 297 297 297 296 296 295 294 293 292 292 291 290 290 290 290 289 289 288 287 286 286 286 286 285 284 283 281 279 277 275 273 270 269 268 266 264 263
298 297 297 297 296 296 295 294 293 292 292 291 291 291 291 291 290 289 289 287 286 286 285 285 284 284 283 282 280 278 275 273 272 269 267 266 264 264
298 298 298 298 297 297 296 295 294 294 293 293 293 293 292 292 291 290 289 288 286 286 285 284 283 282 281 281 280 278 275 274 272 270 269 267 265 263
299 299 298 298 298 297 297 296 296 295 295 295 295 294 293 292 291 290 290 288 286 286 286 284 283 281 280 280 279 278 277 274 273 271 270 268 266 264
299 299 299 299 298 298 297 297 297 297 296 296 295 295 294 292 291 290 290 288 287 286 286 285 284 282 281 280 278 277 277 276 274 272 271 269 267 266
300 300 300 299 299 299 299 298 298 297 297 296 296 295 294 293 291 290 289 288 286 285 285 284 284 283 282 281 280 278 277 276 275 273 272 269 267 266
301 301 301 300 300 300 300 299 299 299 298 297 296 295 295 293 292 291 290 288 286 285 285 284 284 283 283 282 281 279 276 275 274 274 273 271 269 267
301 301 302 301 300 300 300 301 301 300 300 299 298 296 295 294 293 291 290 288 287 285 285 285 285 284 284 283 281 280 278 276 274 272 272 271 270 268
Height
5854 5853 5851 5850 5849 5848 5847 5846 5845 5844 5843 5842 5841 5840 5840 5840 5839 5840 5840 5840 5840 5840 5839 5838 5839 5840 5841 5841 5841 5841 5843 5844 5845 5846 5847 5849 5850 5851
5853 5851 5850 5848 5847 5846 5845 5844 5842 5841 5840 5839 5838 5837 5836 5836 5835 5835 5835 5835 5835 5835 5835 5834 5834 5835 5835 5835 5835 5835 5835 5836 5838 5839 5840 5842 5843 5844
5851 5849 5847 5846 5844 5843 5841 5840 5839 5838 5837 5836 5834 5834 5833 5832 5831 5830 5830 5830 5830 5829 5829 5829 5829 5829 5829 5828 5828 5827 5827 5828 5830 5831 5833 5834 5835 5837
5848 5846 5844 5843 5841 5839 5838 5836 5835 5834 5833 5831 5830 5829 5828 5827 5826 5825 5824 5824 5824 5823 5823 5823 5822 5823 5822 5822 5821 5820 5819 5820 5821 5823 5825 5827 5828 5828
5845 5843 5841 5839 5837 5835 5834 5832 5831 5829 5828 5826 5825 5824 5822 5821 5820 5819 5818 5817 5817 5816 5816 5815 5815 5815 5815 5814 5814 5813 5813 5813 5814 5815 5817 5818 5819 5820
5840 5838 5836 5834 5832 5830 5829 5827 5825 5824 5822 5820 5819 5818 5816 5814 5813 5812 5811 5810 5809 5808 5808 5807 5807 5806 5806 5806 5806 5806 5806 5805 5806 5807 5808 5808 5809 5810
5836 5834 5831 5829 5827 5825 5823 5821 5819 5817 5815 5814 5812 5810 5809 5807 5805 5804 5803 5801 5801 5800 5799 5798 5798 5797 5797 5797 5797 5796 5796 5796 5797 5797 5798 5798 5799 5800
5831 5828 5826 5823 5821 5819 5816 5814 5812 5809 5807 5806 5804 5802 5800 5798 5797 5795 5794 5793 5792 5792 5790 5789 5788 5788 5787 5786 5786 5786 5785 5786 5786 5786 5787 5787 5787 5788
5825 5822 5820 5817 5814 5812 5809 5807 5804 5801 5799 5797 5795 5793 5791 5790 5788 5787 5785 5784 5783 5781 5780 5780 5778 5777 5776 5775 5774 5774 5773 5774 5774 5774 5774 5775 5775 5776
5818 5816 5813 5810 5807 5804 5802 5799 5796 5793 5790 5788 5785 5783 5781 5779 5778 5776 5774 5773 5772 5770 5769 5768 5767 5766 5764 5763 5762 5761 5761 5760 5760 5760 5760 5761 5761 5762
5811 5808 5805 5802 5799 5796 5793 5790 5787 5784 5781 5778 5775 5773 5770 5768 5766 5765 5763 5761 5760 5758 5755 5754 5754 5753 5752 5750 5749 5747 5746 5746 5746 5746 5746 5746 5746 5747
5803 5800 5796 5793 5789 5786 5783 5780 5777 5774 5771 5768 5765 5762 5759 5757 5754 5752 5750 5748 5746 5745 5742 5740 5738 5737 5737 5737 5734 5732 5731 5730 5729 5729 5729 5729 5730 5731
5794 5791 5787 5784 5780 5776 5773 5769 5766 5763 5760 5757 5754 5751 5748 5745 5741 5738 5736 5733 5731 5729 5726 5723 5722 5720 5719 5719 5719 5716 5714 5712 5712 5711 5711 5711 5712 5713
5785 5781 5777 5773 5770 5766 5762 5758 5754 5751 5748 5745 5742 5739 5735 5732 5728 5725 5721 5718 5715 5712 5709 5706 5704 5702 5700 5700 5700 5699 5696 5694 5693 5693 5693 5693 5694 5695
5774 5770 5766 5762 5758 5754 5750 5746 5742 5738 5735 5732 5728 5725 5721 5718 5714 5710 5706 5703 5699 5696 5692 5688 5686 5683 5681 5680 5679 5679 5677 5676 5674 5673 5674 5674 5675 5677
5763 5758 5754 5749 5745 5741 5736 5732 5728 5724 5721 5717 5714 5710 5706 5702 5698 5694 5690 5687 5683 5680 5675 5670 5666 5664 5662 5660 5658 5657 5655 5655 5654 5653 5653 5654 5655 5656
5750 5746 5741 5737 5732 5728 5723 5718 5714 5710 5706 5702 5698 5694 5690 5686 5681 5677 5672 5668 5665 5661 5658 5653 5648 5644 5642 5640 5638 5636 5634 5634 5633 5632 5632 5634 5636 5636
5737 5733 5728 5723 5719 5714 5709 5705 5700 5695 5691 5686 5682 5677 5673 5668 5664 5659 5654 5650 5646 5642 5638 5634 5629 5626 5624 5622 5618 5615 5614 5613 5613 5612 5611 5613 5616 5617
5724 5719 5714 5710 5705 5700 5695 5690 5685 5680 5675 5670 5665 5660 5655 5650 5645 5640 5635 5631 5627 5623 5619 5614 5610 5606 5605 5605 5603 5596 5594 5593 5593 5593 5592 5593 5595 5598
5710 5705 5700 5695 5690 5685 5680 5674 5669 5664 5659 5653 5648 5642 5637 5632 5627 5622 5617 5612 5608 5604 5601 5596 5591 5587 5585 5585 5585 5583 5576 5573 5573 5573 5574 5574 5576 5577
5696 5691 5686 5680 5675 5670 5664 5659 5653 5648 5642 5636 5631 5625 5619 5613 5608 5603 5599 5594 5590 5586 5583 5580 5575 5570 5567 5565 5565 5565 5561 5557 5554 5554 5554 5555 5557 5559
5682 5677 5671 5665 5660 5654 5648 5643 5637 5631 5625 5619 5613 5607 5601 5596 5591 5586 5581 5577 5573 5569 5566 5563 5559 5554 5551 5548 5546 5546 5544 5542 5539 5537 5536 5536 5536 5540
5668 5662 5656 5650 5644 5638 5633 5627 5621 5615 5609 5603 5597 5591 5585 5580 5574 5569 5564 5560 5556 5553 5550 5547 5543 5539 5535 5532 5529 5528 5527 5525 5524 5523 5522 5520 5519 5521